Theta_e
318 320 322 325 325 323 322 324 320 323 321 318 318 321 321 321 321 322 321 326 327 330 338 339 339 339 336 336 333 333 332 332 335 338 336 335 336 335 335 336 337 337 336 335 334 333 333 331 331
318 320 323 325 322 320 318 321 323 321 319 317 317 318 320 321 320 321 324 324 327 329 337 341 340 340 340 337 337 334 332 331 336 336 336 335 334 335 334 335 336 335 334 333 332 328 325 326 326
318 319 323 322 322 319 320 321 320 318 317 318 319 318 320 321 319 322 322 325 327 329 335 339 339 340 339 339 338 337 333 332 336 336 335 334 333 332 332 332 333 333 332 331 326 324 323 321 321
320 321 320 321 321 321 320 320 320 320 317 315 317 319 317 316 319 319 319 327 329 329 333 336 334 335 336 337 338 337 333 335 336 335 334 333 332 331 330 330 331 331 329 326 322 320 316 312 308
318 320 319 320 319 319 319 318 317 319 318 318 316 319 318 315 314 316 321 327 330 330 332 334 329 331 333 334 335 335 333 336 336 333 332 331 330 330 329 328 329 326 324 321 318 318 308 302 300
319 320 319 319 318 318 318 318 317 318 317 316 316 318 319 314 313 316 320 327 329 330 332 334 330 331 333 333 336 335 334 337 336 333 331 330 330 329 326 325 324 322 320 317 313 307 303 300 299
319 319 318 319 320 320 320 315 317 318 318 318 316 318 319 316 313 314 319 326 328 330 332 333 334 332 330 331 335 336 336 337 335 332 330 329 329 326 323 321 320 319 317 316 313 309 303 300 299
320 320 321 320 319 318 318 315 315 317 318 313 315 318 318 317 312 314 319 324 327 329 330 332 333 334 334 333 331 334 334 335 334 331 329 329 328 322 319 317 316 317 317 313 311 308 303 300 299
315 319 320 319 318 317 317 317 313 314 316 314 315 317 318 311 312 317 320 323 325 326 328 330 331 332 332 332 330 331 332 332 332 330 329 328 323 319 317 315 315 317 315 311 304 302 299 299 299
320 320 319 317 317 316 317 316 317 316 317 318 316 316 314 311 314 316 319 321 324 325 325 326 328 329 329 330 330 330 332 332 331 330 328 325 320 317 315 314 315 316 313 309 304 299 299 299 298
320 320 319 317 315 314 316 316 315 317 318 318 318 318 317 313 313 314 316 318 320 323 324 324 325 326 327 328 327 328 329 330 329 327 325 322 317 314 312 313 314 314 310 308 304 298 297 297 297
319 319 319 318 315 316 317 317 316 317 317 317 317 317 316 316 315 314 315 316 317 319 322 323 323 324 325 326 326 326 327 327 326 324 321 318 315 312 311 312 313 312 309 306 300 297 297 297 297
318 318 318 317 316 316 316 317 317 317 317 317 316 315 314 315 314 314 313 313 315 317 318 320 322 322 323 324 324 324 325 325 324 322 319 317 314 311 309 309 310 309 306 301 297 297 296 296 295
316 316 316 315 315 315 315 316 314 315 315 315 315 315 315 314 313 313 312 311 312 314 316 317 319 320 321 322 323 322 322 323 322 320 317 316 312 309 307 307 307 306 302 299 296 296 296 295 295
313 314 315 315 314 314 313 315 315 315 314 314 314 315 315 314 313 312 313 313 312 312 313 315 316 318 320 320 321 321 320 320 320 318 316 315 312 307 303 304 304 302 300 296 296 295 295 295 294
313 313 315 315 312 312 314 315 315 314 312 313 314 314 314 315 315 314 313 311 312 311 311 311 312 314 318 319 319 319 319 318 317 317 315 314 312 308 303 302 301 300 297 295 295 295 295 295 295
314 315 315 314 313 312 314 314 314 314 312 313 313 314 314 314 314 313 313 312 311 311 310 309 310 313 315 317 318 318 317 317 316 315 314 312 312 309 303 300 300 298 295 295 295 295 295 295 295
316 315 314 314 314 313 312 313 312 312 312 312 313 313 314 314 314 312 311 310 310 310 309 309 308 309 312 314 315 316 315 315 314 314 312 310 309 308 303 299 298 297 295 295 295 295 294 295 295
313 313 314 314 314 313 313 313 313 313 313 313 313 314 314 314 313 311 310 308 308 308 308 307 307 306 309 311 313 314 314 313 312 312 310 309 307 307 304 300 298 296 295 295 294 294 294 293 293
313 314 314 314 313 310 313 313 313 313 313 314 314 313 313 313 311 310 308 307 306 306 306 306 305 305 306 309 311 311 311 311 310 310 308 307 305 305 304 300 297 296 295 295 294 294 294 294 293
313 314 315 315 313 312 312 316 314 314 312 313 311 312 311 310 310 308 307 304 303 302 302 302 303 303 303 306 308 308 304 306 307 307 306 304 304 302 304 300 297 296 295 295 294 293 294 295 293
314 314 312 312 312 318 311 319 318 316 314 312 312 312 311 310 308 305 303 302 300 299 299 300 300 301 301 303 304 305 304 304 303 303 303 303 302 301 300 299 297 296 295 294 294 293 294 295 294
314 309 310 310 313 312 315 314 319 312 314 313 313 310 310 307 304 303 302 301 299 298 297 297 298 298 299 300 301 301 302 303 303 301 302 301 300 299 298 297 296 296 295 294 294 293 293 294 296
308 310 310 311 312 318 317 315 317 315 313 312 309 308 305 304 303 302 301 300 299 297 297 296 296 296 296 297 299 299 300 301 301 299 300 300 298 297 297 297 296 295 294 294 294 293 292 293 294
309 312 322 322 321 321 313 313 315 315 311 308 308 305 303 302 302 301 300 299 298 297 297 296 296 295 295 295 296 297 298 298 299 299 299 299 298 296 296 295 295 294 294 294 293 293 292 292 292
312 314 320 323 323 320 310 316 316 312 308 306 305 303 302 301 301 300 299 298 297 296 295 296 295 295 295 295 294 294 295 295 296 297 297 298 297 297 295 294 294 294 294 293 293 292 291 291 291
312 313 313 317 318 319 317 316 316 313 308 307 304 302 299 298 298 298 298 297 296 295 294 294 293 293 294 294 294 294 294 294 294 295 294 295 295 295 295 294 293 293 293 293 292 291 291 291 291
310 311 314 312 317 320 315 315 316 312 310 305 302 299 298 296 296 296 296 296 295 294 294 292 293 292 291 292 293 293 293 292 292 293 293 293 293 293 293 293 292 293 292 291 291 291 291 290 290
311 309 309 310 313 319 320 317 312 311 305 303 299 296 295 295 295 295 294 295 294 292 293 292 291 291 290 290 291 292 292 292 292 292 292 292 292 291 291 292 292 291 291 290 290 290 290 289 289
310 312 311 314 316 314 315 316 306 303 300 297 295 294 294 293 293 294 294 293 293 291 291 291 290 290 289 289 289 289 289 289 289 291 291 291 291 291 290 290 290 290 290 290 289 289 289 289 288
Wind_Speed
4 4 4 3 4 3 3 1 2 3 2 1 3 3 4 6 4 5 1 9 8 21 23 27 26 23 21 19 17 15 13 11 10 9 7 7 7 5 6 7 8 7 6 5 4 3 3 2 1
3 3 1 1 4 3 3 0 2 2 2 2 4 4 5 7 4 4 2 10 10 20 22 24 26 24 21 20 18 16 14 12 11 10 9 8 8 8 7 7 5 5 4 4 6 4 2 2 2
1 2 3 2 2 3 3 1 2 2 3 4 3 3 4 2 2 2 2 12 13 19 21 20 26 24 23 21 19 17 15 14 14 11 9 7 7 6 8 9 9 8 7 9 4 3 2 2 3
1 2 2 4 7 8 5 7 7 9 1 3 4 7 3 5 1 2 3 15 15 19 19 20 25 24 23 22 20 18 16 17 16 15 12 11 9 9 6 7 8 9 8 7 5 4 4 4 3
2 1 2 3 5 5 7 7 6 5 3 3 2 3 4 3 6 4 4 14 14 20 20 20 24 23 22 22 21 19 18 18 19 17 14 12 11 12 9 9 10 10 8 7 7 7 4 2 2
2 2 3 4 4 5 7 5 4 4 2 1 4 5 4 3 4 6 8 12 13 19 21 21 26 25 24 22 20 20 21 21 21 19 16 14 13 12 11 10 11 10 8 7 6 5 4 4 3
2 2 3 5 6 5 1 1 3 3 2 4 1 5 4 6 3 5 8 11 13 17 21 22 22 26 26 25 22 21 22 23 20 20 16 16 16 14 12 12 11 10 10 10 9 8 6 4 3
1 2 3 4 3 5 2 2 1 5 6 2 2 4 5 2 3 5 7 11 14 17 21 21 21 22 23 23 27 24 23 24 22 20 18 19 21 18 15 15 12 11 11 11 10 9 7 4 2
1 4 5 4 4 2 3 4 3 3 8 5 8 9 11 3 4 5 8 11 16 19 22 22 22 22 23 23 23 26 26 25 25 22 22 24 17 16 15 14 14 13 12 12 11 9 7 4 3
4 4 5 4 5 6 6 5 6 6 13 17 13 17 17 7 9 12 14 16 21 23 25 26 25 25 24 23 23 24 24 25 23 23 23 22 18 16 16 16 18 16 15 13 12 10 8 6 5
4 7 7 7 12 7 8 9 4 9 15 15 16 15 11 12 16 17 20 22 23 23 23 27 26 26 26 25 24 23 24 25 25 25 24 23 20 19 19 15 17 16 17 12 11 11 8 8 6
6 11 10 6 4 4 7 6 9 14 25 22 21 17 15 15 14 19 22 22 23 23 25 25 28 27 28 26 27 26 26 27 26 27 27 26 24 21 19 19 19 18 17 15 15 13 12 10 8
9 10 10 11 9 10 12 21 17 20 23 24 20 16 17 17 21 21 22 21 21 25 24 25 26 30 29 29 27 28 29 29 28 26 30 30 25 26 23 21 20 19 19 19 17 15 13 11 9
2 7 12 9 15 12 10 23 5 12 11 15 15 17 16 14 18 19 18 22 22 22 26 26 29 32 31 33 32 32 31 31 30 29 31 35 31 28 25 24 24 23 22 19 18 16 14 12 9
4 11 16 16 10 8 8 12 14 20 6 14 19 17 15 15 17 18 20 20 20 24 26 28 32 33 35 37 36 36 34 33 34 33 33 38 37 32 29 26 24 25 25 22 19 18 15 12 10
5 4 10 8 5 3 8 19 19 12 7 14 17 22 23 26 25 24 21 22 23 24 24 27 31 35 36 38 36 34 32 33 32 31 30 37 39 35 31 26 26 26 25 24 21 19 15 11 9
6 11 14 16 2 4 9 12 17 15 15 26 24 24 23 21 22 23 21 21 22 22 21 22 26 30 32 35 32 33 31 34 33 31 32 37 40 39 33 29 26 28 26 24 21 19 16 13 11
15 13 11 12 13 11 17 21 20 25 22 26 26 25 18 18 17 19 18 19 22 19 17 18 20 23 25 26 28 28 29 32 32 34 36 34 41 40 35 30 30 31 28 25 23 20 17 13 12
12 15 19 23 22 17 20 20 20 22 23 25 23 18 14 14 13 14 14 15 14 12 11 14 17 18 21 24 26 28 30 28 30 32 32 34 37 42 40 34 31 33 33 33 28 21 21 14 15
14 15 21 18 17 4 16 20 24 19 17 19 16 15 13 12 12 17 24 22 22 22 19 12 12 14 19 21 24 24 24 26 27 26 27 31 32 39 44 42 40 39 34 29 29 28 19 12 21
13 15 17 18 15 14 13 14 6 10 7 8 6 8 4 10 16 18 22 29 30 30 26 21 13 10 13 16 15 16 12 16 20 23 23 25 28 32 45 41 40 42 40 39 40 37 29 19 20
14 11 16 12 7 11 9 14 9 9 13 4 8 9 12 16 17 18 20 26 28 27 24 21 18 9 6 11 12 17 16 17 16 19 22 23 27 29 33 39 38 41 43 34 40 39 32 24 20
6 2 2 2 7 10 4 7 4 4 5 3 1 11 16 16 17 18 20 24 26 29 31 33 24 17 8 5 10 12 17 15 12 12 16 21 23 29 29 33 33 38 42 36 37 38 33 30 22
2 2 1 1 3 9 8 7 6 0 1 2 14 13 14 14 15 17 24 26 34 38 35 30 28 24 17 10 6 9 14 14 13 11 12 15 18 22 27 35 37 36 38 41 45 44 43 39 27
4 4 8 8 7 14 3 6 12 11 6 7 10 12 13 14 15 18 21 28 32 33 30 30 32 30 23 16 10 10 11 14 16 15 14 15 16 20 26 28 31 37 42 39 39 43 44 44 36
8 7 6 10 16 19 5 12 12 5 12 12 13 13 12 15 16 17 18 22 23 26 29 29 28 27 28 27 21 15 11 12 14 15 16 16 17 19 21 29 34 34 35 38 38 37 37 39 41
5 7 4 11 16 12 18 25 19 8 9 10 10 11 14 13 13 15 19 21 22 23 26 26 28 27 27 28 27 23 17 13 13 14 16 15 15 16 18 23 30 33 37 41 41 40 42 42 42
8 7 8 6 9 21 16 22 15 9 8 6 9 10 10 10 12 12 14 17 19 21 20 23 23 26 25 23 23 23 24 18 13 12 15 19 19 21 23 21 25 29 34 37 39 37 39 39 40
9 7 8 7 8 10 14 13 11 5 7 7 8 9 10 11 11 11 14 15 16 17 20 21 21 22 25 25 25 24 24 25 22 17 14 14 16 18 21 26 28 30 33 34 37 39 38 41 38
6 16 17 11 10 11 14 18 5 10 7 4 4 3 5 8 10 9 12 15 15 17 18 18 20 21 22 22 22 23 24 24 26 26 22 18 17 17 21 21 25 29 34 34 37 37 38 39 39
Wind_Direction
341 342 337 263 257 257 260 192 315 271 254 2 116 256 315 313 285 330 139 184 183 176 175 183 185 187 187 186 186 185 185 180 174 171 174 167 162 144 153 140 148 153 137 145 200 183 156 156 141
345 340 296 266 266 274 74 68 244 341 353 226 230 230 250 284 260 283 253 195 181 177 179 181 186 188 190 190 192 195 194 191 185 184 177 173 174 184 163 166 162 150 159 211 218 150 142 159 217
21 26 283 318 277 312 352 195 15 351 283 244 254 247 292 249 211 286 259 178 179 182 182 187 193 192 191 196 200 200 199 198 191 190 177 181 184 174 169 186 185 184 204 212 156 157 169 203 247
204 167 128 269 285 279 267 304 302 306 165 226 287 266 231 254 261 203 216 177 177 183 188 195 193 200 203 203 204 204 204 195 195 187 197 201 200 199 186 185 180 185 159 155 162 161 196 225 261
59 215 225 263 273 273 263 293 294 291 298 203 214 293 264 220 226 241 203 187 184 186 188 193 195 198 202 207 211 211 205 199 196 197 203 212 215 213 195 183 173 178 179 180 158 156 190 190 163
143 278 239 271 278 271 280 270 272 257 261 182 224 262 265 174 226 223 209 197 196 193 191 193 198 200 203 205 205 208 205 200 201 206 204 205 210 204 199 186 182 177 187 178 189 181 153 140 119
230 226 289 288 288 284 238 176 231 292 266 254 309 269 282 240 224 214 205 199 201 199 198 199 202 206 207 207 202 205 202 205 205 211 215 208 208 203 196 193 190 180 170 168 160 157 152 147 130
158 235 216 227 276 281 196 215 226 259 311 103 224 243 284 116 200 199 201 200 203 203 205 207 208 208 209 210 208 209 212 214 209 217 207 203 208 208 203 200 194 183 174 167 164 159 154 151 123
206 234 247 247 216 259 182 245 169 299 273 228 208 247 282 208 225 198 199 207 208 212 211 211 211 211 212 211 214 209 212 215 215 211 208 208 201 204 204 195 195 182 180 175 172 175 176 167 146
228 233 248 231 227 259 278 254 287 262 265 261 259 253 250 239 234 233 224 223 217 216 213 212 211 211 211 212 213 211 214 212 210 206 205 203 200 198 193 195 185 188 185 179 179 187 181 166 156
182 245 247 239 244 262 278 275 243 261 274 265 279 292 284 240 242 241 242 239 233 229 220 216 213 211 209 211 210 211 211 210 208 205 201 198 196 200 194 189 189 188 191 177 181 184 177 177 170
232 245 242 262 223 229 264 289 256 248 263 278 285 289 279 265 256 244 246 243 238 230 226 222 215 213 213 210 210 210 208 207 204 203 200 199 199 197 195 192 189 188 187 188 189 188 186 182 180
238 255 252 247 248 253 273 265 266 268 267 279 279 276 268 269 264 262 256 258 247 238 232 226 219 217 215 211 212 212 212 209 208 205 206 205 201 201 196 196 194 194 195 195 193 190 188 186 183
326 277 278 275 256 244 242 271 297 257 273 282 284 278 281 267 265 270 257 251 241 242 236 227 223 219 215 215 214 213 211 210 208 208 210 210 208 204 199 196 197 197 198 197 195 192 189 186 185
329 299 293 267 258 233 220 265 235 268 282 275 284 288 293 280 272 262 270 255 247 242 244 229 224 221 217 218 216 214 213 209 208 210 210 212 211 207 203 201 199 200 199 199 195 193 190 186 187
264 256 281 298 155 174 198 278 287 317 310 294 289 290 286 282 288 289 279 264 262 259 243 242 232 225 221 218 217 216 215 213 214 212 210 214 213 210 205 202 203 201 200 197 195 193 189 185 184
224 272 269 295 237 132 213 281 292 293 291 289 287 284 284 296 293 297 295 281 271 262 251 242 231 227 223 222 219 217 216 216 216 214 212 214 214 211 207 205 203 202 198 198 194 193 189 183 180
278 273 262 272 290 281 288 274 278 286 283 278 285 285 299 293 305 322 312 306 294 284 266 251 238 230 225 222 220 221 220 220 218 216 215 212 212 211 208 207 205 203 198 196 196 194 187 185 175
285 279 283 279 286 298 290 295 293 282 282 282 283 296 299 302 325 334 350 341 324 315 297 269 250 238 214 214 215 216 220 223 223 220 217 213 211 210 207 208 207 205 203 203 198 189 187 175 169
260 270 271 280 282 290 287 297 292 292 269 271 287 299 305 328 13 19 18 14 4 355 343 313 264 245 230 220 217 215 223 228 230 229 226 218 213 212 210 207 206 206 202 201 198 193 181 184 184
249 256 273 273 314 280 300 283 252 281 275 297 284 281 342 36 22 16 18 18 14 8 355 343 317 259 231 230 227 221 234 222 218 224 231 229 222 217 217 212 209 207 204 201 202 198 193 179 194
274 268 264 281 304 299 18 304 298 273 278 64 38 74 55 31 31 33 25 23 19 10 7 8 5 333 257 219 228 227 237 239 236 228 222 222 223 224 223 217 212 211 208 203 205 204 200 189 184
265 35 321 312 288 302 303 269 335 203 243 123 67 54 41 37 31 31 29 30 27 24 22 24 21 17 352 272 233 239 240 250 261 253 233 223 221 220 220 220 217 214 211 207 208 206 201 203 198
138 291 210 182 288 274 315 220 339 183 182 52 83 58 50 39 37 31 28 28 31 33 30 26 28 25 10 343 294 265 265 257 256 255 242 232 225 225 222 219 216 218 217 213 212 212 210 208 204
189 274 288 269 249 269 89 239 254 285 39 48 71 76 53 48 39 35 32 26 21 24 29 37 31 25 19 6 345 313 288 278 270 260 248 233 226 224 223 220 220 218 220 221 217 214 212 210 208
191 206 242 282 277 283 127 260 262 114 88 73 61 55 45 39 33 34 32 31 29 23 21 24 31 26 22 22 8 342 315 293 282 276 261 249 240 236 232 224 219 219 223 223 221 221 218 213 213
152 222 266 265 267 279 267 264 268 177 85 75 61 50 40 35 33 29 24 26 19 24 22 22 21 24 20 20 16 12 348 325 299 291 281 265 262 259 243 234 227 224 222 222 222 219 220 220 219
252 313 256 219 257 252 247 260 263 182 128 88 55 44 35 32 33 30 24 22 17 18 18 20 19 16 17 16 15 13 13 3 334 313 298 294 283 272 263 245 240 230 224 223 219 222 220 219 219
253 242 232 273 254 260 265 259 313 6 84 80 50 31 29 21 17 10 13 19 18 15 12 12 15 11 12 12 5 9 10 7 11 358 334 312 297 279 269 261 252 237 230 225 221 223 222 216 216
259 259 242 242 242 232 252 252 85 106 105 132 132 77 46 31 7 7 14 6 9 7 7 6 5 8 6 3 3 5 4 3 3 1 358 349 321 308 291 272 258 246 237 230 227 225 223 219 213